TimeCDT,TemperatureF,Dew PointF,Humidity,Sea Level PressureIn,VisibilityMPH,Wind Direction,Wind SpeedMPH,Gust SpeedMPH,PrecipitationIn,Events,Conditions,WindDirDegrees,DateUTC
12:13 AM,51.8,26.6,38,29.85,10.0,South,8.1,-,N/A,,Clear,180,2012-10-03 05:13:00
12:34 AM,50.0,26.6,40,29.85,10.0,South,8.1,-,N/A,,Clear,170,2012-10-03 05:34:00
12:53 AM,51.8,26.6,38,29.85,10.0,South,9.2,-,N/A,,Clear,170,2012-10-03 05:53:00
1:13 AM,48.2,26.6,43,29.85,10.0,South,8.1,-,N/A,,Clear,180,2012-10-03 06:13:00
1:34 AM,48.2,26.6,43,29.85,10.0,South,6.9,-,N/A,,Clear,180,2012-10-03 06:34:00
1:53 AM,50.0,26.6,40,29.85,10.0,South,6.9,-,N/A,,Clear,180,2012-10-03 06:53:00
2:13 AM,48.2,26.6,43,29.85,10.0,South,6.9,-,N/A,,Clear,180,2012-10-03 07:13:00
2:34 AM,48.2,26.6,43,29.85,10.0,South,6.9,-,N/A,,Clear,180,2012-10-03 07:34:00
2:53 AM,48.2,26.6,43,29.85,10.0,South,6.9,-,N/A,,Clear,180,2012-10-03 07:53:00
3:13 AM,50.0,26.6,40,29.84,10.0,South,10.4,-,N/A,,Clear,170,2012-10-03 08:13:00
3:34 AM,48.2,28.4,46,29.84,10.0,SSW,6.9,-,N/A,,Clear,200,2012-10-03 08:34:00
3:53 AM,48.2,28.4,46,29.85,10.0,SSW,6.9,-,N/A,,Clear,200,2012-10-03 08:53:00
4:13 AM,46.4,28.4,50,29.85,10.0,SW,5.8,-,N/A,,Clear,220,2012-10-03 09:13:00
4:33 AM,48.2,28.4,46,29.85,10.0,SSW,3.5,-,N/A,,Clear,200,2012-10-03 09:33:00
4:53 AM,48.2,28.4,46,29.85,10.0,South,3.5,-,N/A,,Clear,190,2012-10-03 09:53:00
5:14 AM,46.4,28.4,50,29.85,10.0,South,3.5,-,N/A,,Clear,180,2012-10-03 10:14:00
5:33 AM,46.4,28.4,50,29.85,10.0,South,4.6,-,N/A,,Clear,190,2012-10-03 10:33:00
5:53 AM,44.6,28.4,53,29.86,10.0,South,6.9,-,N/A,,Clear,190,2012-10-03 10:53:00
6:13 AM,46.4,28.4,50,29.86,10.0,Calm,Calm,-,N/A,,Clear,0,2012-10-03 11:13:00
6:33 AM,48.2,28.4,46,29.86,10.0,Calm,Calm,-,N/A,,Clear,0,2012-10-03 11:33:00
6:53 AM,46.4,28.4,50,29.87,10.0,Calm,Calm,-,N/A,,Clear,0,2012-10-03 11:53:00
7:14 AM,48.2,28.4,46,29.87,10.0,Calm,Calm,-,N/A,,Clear,0,2012-10-03 12:14:00
7:33 AM,48.2,28.4,46,29.87,10.0,Calm,Calm,-,N/A,,Clear,0,2012-10-03 12:33:00
7:53 AM,48.2,28.4,46,29.87,10.0,Calm,Calm,-,N/A,,Clear,0,2012-10-03 12:53:00
8:14 AM,48.2,30.2,50,29.87,10.0,SE,4.6,-,N/A,,Clear,130,2012-10-03 13:14:00
8:33 AM,48.2,33.8,58,29.87,10.0,NNE,4.6,-,N/A,,Clear,20,2012-10-03 13:33:00
8:53 AM,51.8,33.8,50,29.88,10.0,NE,4.6,-,N/A,,Clear,40,2012-10-03 13:53:00
9:14 AM,53.6,30.2,41,29.88,10.0,NE,3.5,-,N/A,,Clear,50,2012-10-03 14:14:00
9:33 AM,55.4,30.2,38,29.88,10.0,NE,3.5,-,N/A,,Clear,50,2012-10-03 14:33:00
9:53 AM,57.2,30.2,36,29.87,10.0,East,6.9,-,N/A,,Clear,80,2012-10-03 14:53:00
10:14 AM,60.8,30.2,31,29.86,10.0,East,5.8,-,N/A,,Clear,90,2012-10-03 15:14:00
10:33 AM,62.6,30.2,30,29.87,10.0,East,4.6,-,N/A,,Clear,80,2012-10-03 15:33:00
10:53 AM,64.4,30.2,28,29.87,10.0,Calm,Calm,-,N/A,,Clear,0,2012-10-03 15:53:00
11:14 AM,64.4,30.2,28,29.87,10.0,ENE,4.6,-,N/A,,Clear,70,2012-10-03 16:14:00
11:33 AM,66.2,30.2,26,29.86,10.0,ENE,8.1,-,N/A,,Clear,70,2012-10-03 16:33:00
11:53 AM,69.8,30.2,23,29.85,10.0,East,8.1,-,N/A,,Clear,80,2012-10-03 16:53:00
12:14 PM,71.6,28.4,20,29.84,10.0,East,12.7,-,N/A,,Clear,100,2012-10-03 17:14:00
12:33 PM,71.6,30.2,22,29.84,10.0,East,13.8,-,N/A,,Clear,100,2012-10-03 17:33:00
12:53 PM,71.6,32.0,23,29.84,10.0,ESE,12.7,18.4,N/A,,Clear,120,2012-10-03 17:53:00
1:14 PM,73.4,33.8,23,29.83,10.0,East,12.7,-,N/A,,Clear,100,2012-10-03 18:14:00
1:33 PM,73.4,33.8,23,29.82,10.0,ESE,12.7,17.3,N/A,,Clear,120,2012-10-03 18:33:00
1:53 PM,73.4,32.0,22,29.82,10.0,ESE,10.4,-,N/A,,Unknown,110,2012-10-03 18:53:00
2:13 PM,75.2,30.2,19,29.81,10.0,SSE,10.4,18.4,N/A,,Clear,150,2012-10-03 19:13:00
2:34 PM,78.8,28.4,16,29.81,10.0,SSE,15.0,18.4,N/A,,Clear,150,2012-10-03 19:34:00
2:53 PM,77.0,26.6,16,29.82,10.0,SSE,17.3,23.0,N/A,,Clear,150,2012-10-03 19:53:00
3:13 PM,75.2,26.6,17,29.81,10.0,SSE,12.7,17.3,N/A,,Clear,150,2012-10-03 20:13:00
3:34 PM,78.8,28.4,16,29.81,10.0,SE,13.8,18.4,N/A,,Clear,140,2012-10-03 20:34:00
3:53 PM,73.4,26.6,18,29.81,10.0,SSE,12.7,18.4,N/A,,Clear,150,2012-10-03 20:53:00
4:13 PM,73.4,28.4,19,29.81,10.0,SSE,8.1,-,N/A,,Clear,150,2012-10-03 21:13:00
4:34 PM,73.4,26.6,18,29.81,10.0,ESE,13.8,17.3,N/A,,Clear,120,2012-10-03 21:34:00
4:53 PM,73.4,26.6,18,29.80,7.0,SE,12.7,-,N/A,,Clear,130,2012-10-03 21:53:00
5:13 PM,73.4,26.6,18,29.81,10.0,SE,9.2,-,N/A,,Clear,130,2012-10-03 22:13:00
5:34 PM,71.6,28.4,20,29.80,7.0,East,11.5,-,N/A,,Clear,100,2012-10-03 22:34:00
5:53 PM,71.6,28.4,20,29.81,10.0,ESE,9.2,-,N/A,,Clear,110,2012-10-03 22:53:00
6:13 PM,71.6,28.4,20,29.81,7.0,ESE,8.1,-,N/A,,Clear,110,2012-10-03 23:13:00
6:34 PM,69.8,30.2,23,29.82,10.0,East,6.9,-,N/A,,Clear,100,2012-10-03 23:34:00
6:53 PM,66.2,30.2,26,29.81,10.0,East,9.2,-,N/A,,Clear,90,2012-10-03 23:53:00
7:13 PM,66.2,30.2,26,29.82,7.0,East,6.9,-,N/A,,Clear,90,2012-10-04 00:13:00
7:34 PM,64.4,30.2,28,29.83,10.0,East,5.8,-,N/A,,Clear,90,2012-10-04 00:34:00
7:53 PM,62.6,30.2,30,29.82,10.0,East,5.8,-,N/A,,Clear,90,2012-10-04 00:53:00
8:13 PM,59.0,33.8,39,29.82,7.0,ENE,6.9,-,N/A,,Clear,70,2012-10-04 01:13:00
8:34 PM,57.2,32.0,38,29.82,10.0,East,8.1,-,N/A,,Clear,80,2012-10-04 01:34:00
8:53 PM,59.0,33.8,39,29.81,10.0,ENE,8.1,-,N/A,,Clear,70,2012-10-04 01:53:00
9:13 PM,60.8,33.8,36,29.81,10.0,East,8.1,-,N/A,,Clear,80,2012-10-04 02:13:00
9:34 PM,62.6,33.8,34,29.80,7.0,East,8.1,-,N/A,,Scattered Clouds,100,2012-10-04 02:34:00
9:53 PM,62.6,35.6,37,29.79,10.0,East,9.2,-,N/A,,Scattered Clouds,100,2012-10-04 02:53:00
10:13 PM,62.6,35.6,37,29.79,10.0,East,9.2,-,N/A,,Scattered Clouds,100,2012-10-04 03:13:00
10:33 PM,62.6,35.6,37,29.78,10.0,East,8.1,-,N/A,,Scattered Clouds,100,2012-10-04 03:33:00
10:53 PM,62.6,37.4,39,29.78,10.0,East,9.2,-,N/A,,Mostly Cloudy,100,2012-10-04 03:53:00
11:14 PM,60.8,37.4,42,29.76,10.0,East,10.4,-,N/A,,Scattered Clouds,100,2012-10-04 04:14:00
11:33 PM,60.8,37.4,42,29.75,10.0,ESE,10.4,-,N/A,,Clear,110,2012-10-04 04:33:00
11:53 PM,59.0,37.4,45,29.74,10.0,East,10.4,-,N/A,,Clear,100,2012-10-04 04:53:00